SL-16 DEB, 22537

Orbit data source: Space-Track

SL-16 DEB, 22537 is space debris in LEO originally from a launch on Fri, 25 Dec 1992 UTC launched from the Tyuratam Missile And Space Complex (TTMTR). Debris objects in space refer to the collection of defunct objects orbiting the Earth. Examples of debris include non-operational satellites, rocket bodies, and fragments generated from explosions, collisions, or faulty payload assembly.

Loading next visibility...
Identifier
22537, 1992-093GX
Orbit
LEO
Country
Flag of CISCIS
Related business
Manufacturer
Unknown
Mission
Spacecraft
Bus & Motor
Unknown
Mass
Unknown
Launch date (UTC)
1992-12-25 (33 years ago)
Launch vehicle
Unknown
Launch site
Tyuratam Missile And Space Complex (TTMTR)
Object type
Payload
Rocket body
Debris
Shape & HBR
Unknown shape, 0.1 m
Radar Cross Section
Small (<0.1 m²)

Expand to show TLE details & history
Last TLE update: 1 day ago

TLE from 1 day ago
0 SL-16 DEB
1 22537U 92093GX  26132.08693876  .00001546  00000-0  78221-3 0  9992
2 22537  71.1694  23.5309 0096649 110.0604 251.0955 14.15224195699349
Epoch: 2026-05-12T02:05Z
TLE epoch observation values (Epoch: 2026-05-12T02:05:11.508Z)
Latitude
-0.00004°
Longitude
122.36658°
Altitude
867.173 km
Speed
7.407 km/s
True Right ascension
01h 34m 07s
True Declination
0° 00' 00"
Sunlit
Object was in daylight at epoch
Visualization orbit readout
Latitude
Unknown
Longitude
Unknown
Altitude
Unknown
Speed
Unknown
Apparent Right ascension
Unknown
Apparent Declination
Unknown
Sunlit
N/A
Visualization observer readout
Local Sidereal Time
11:31:48
Azimuth
Unknown
Elevation
Unknown
Doppler factor
Unknown
Orbital elements
Apogee altitude
909.215 km
Perigee altitude
769.7 km
Semi-major axis
7,217.594 km
Eccentricity
0.00966
Inclination
71.1694°
RAAN
23.5309°
Arg. of periapsis
110.0604°
True anomaly
250.05187°
Mean anomaly
251.0955°
Eccentric anomaly
250.57327°
Mean motion
3.5396 °/min
Orbital period
101.71 mins
BSTAR
0.00078221
Loading maneuver chart data...
Computing Atmospheric mass density...
Loading historical data...
Loading historical data...
Loading historical data...
Loading historical data...
Loading historical data...
Loading historical data...
Loading historical data...

Documentation

Showing up to 5 results
|